Regional Weather Roundup
Issued by NWS New Orleans/Baton Rouge, LA

Home | Current Version | Previous Version | Text Only | Print | Product List | Glossary On
Versions: 1 2 3 4 5 6 7 8 9 10 11 12 13 14 15 16 17 18 19 20 21 22 23 24 25 26 27 28 29 30 31 32 33 34 35 36 37 38 39 40 41 42 43 44 45 46 47 48 49 50
321
ASUS44 KLIX 160805
RWRLIX
NEW ORLEANS REGIONAL WEATHER ROUNDUP
NATIONAL WEATHER SERVICE NEW ORLEANS LA
300 AM CDT TUE SEP 16 2014

NOTE: "FAIR" INDICATES FEW OR NO CLOUDS BELOW 12,000 FEET WITH NO
      SIGNIFICANT WEATHER AND/OR OBSTRUCTIONS TO VISIBILITY.
      SKY/WX - SKY CONDITION AND SIGNIFICANT WEATHER.
      TMP - AIR TEMPERATURE.     DP    - DEWPOINT TEMPERATURE.
      RH  - RELATIVE HUMIDITY.   PRES  - PRESSURE.
      HI  - HEAT INDEX.          WCI   - WIND CHILL INDEX.

*  THESE STATIONS ARE NOT NWS OR FAA STATIONS AND ARE NOT UNDER
   NWS QUALITY CONTROL.

LAZ038-040-048-061>063-065>067-069-160900-
SOUTHEAST LOUISIANA

CITY           SKY/WX    TMP DP  RH WIND       PRES   REMARKS
N.O. AUDUBON     N/A     78  78  99 MISG        N/A
N.O. INTL ARPT PTCLDY    77  75  93 W3        30.07S
N.O. LAKEFRONT PTCLDY    82  76  81 W6        30.07S
N.O. DOWNTOWN*   N/A     81  72  74 CALM      30.07S
SLIDELL        PTCLDY    75  72  90 CALM      30.07S
BATON ROUGE    CLEAR     74  73  97 CALM      30.07F
BOOTHVILLE     PTCLDY    82  76  81 W5        30.07S
BELLE CHASSE   MOCLDY    77  73  87 NW3       30.07S
BOGALUSA*        N/A     75  72  89 CALM      30.08F FOG
GALLIANO*      NOT AVBL
NEW ROADS*       N/A     74  73  98 CALM      30.07F
GONZALES*        N/A     74  74 100 CALM      30.07F FOG
HAMMOND*       PTCLDY    77  73  88 CALM      30.08F
HOUMA*         PTCLDY    75  73  91 N3        30.07S
PORT FOURCHON* MOSUNNY   81  75  83 N3        30.09F

$$

MSZ070-080>082-160900-
SOUTHERN MISSISSIPPI

CITY           SKY/WX    TMP DP  RH WIND       PRES   REMARKS
MCCOMB         MOCLDY    77  74  90 CALM      30.08F
GULFPORT       PTCLDY    75  75 100 CALM      30.05F
BILOXI         PTCLDY    78  76  95 NW6       30.06S
PASCAGOULA     PTCLDY    74  73  97 CALM      30.05F

$$

COASTAL OBSERVATIONS
LAKE AND NEARSHORE STATIONS

STATION/POSITION TIME  TEMP    WIND        PRES    WAVE
                       AIR SEA DIR/SP/G            HT/PER
                 (UTC) (F)     (DEG/KT/KT) (MB)    (FT/S)
PASCAGOULA       0800   79     360/  3/  3 1017.2
WAVELAND YACHT   0800   77     300/  2/  3 1017.4
GRAND ISLE       0800   83 86  270/  4/  5 1018.7
SOUTHWEST PASS   0800   83 90  270/  9/ 11 1018.4
NEW CANAL        0800   80 82  210/  3/  3 1018.7
SHELL BEACH      0800   80 80  260/  4/  5 1018.2

OFFSHORE STATIONS

STATION/POSITION TIME  TEMP    WIND        PRES    WAVE
                       AIR SEA DIR/SP/G            HT/PER
                 (UTC) (F)     (DEG/KT/KT) (MB)    (FT/S)
64 S DAUPHIN ISL 0702   79 85  240/ 19/ 21 1018.2    3/ 7

$$




USA.gov is the U.S. government's official web portal to all federal, state and local government web resources and services.